This is the latest recevied weather packets stored in our database for station/object PU3WIW-13. If no packets are shown the sender has not sent any weather packets the latest 10 day(s).
| Time | Temp. | Humidity | Pressure | Rain* | Wind** | Luminosity | Snow |
|---|---|---|---|---|---|---|---|
| 1777822497 | 16.67° C | 10% | 1014.7 hPa | 0 mm | - | - | - |
| 1777822317 | 16.11° C | 10% | 1014.7 hPa | 0 mm | - | - | - |
| 1777822136 | 16.11° C | 10% | 1014.7 hPa | 0 mm | - | - | - |
| 1777821955 | 16.67° C | 10% | 1014.7 hPa | 0 mm | - | - | - |
| 1777821776 | 16.67° C | 10% | 1014.9 hPa | 0 mm | - | - | - |
| 1777821597 | 16.11° C | 10% | 1014.9 hPa | 0 mm | - | - | - |
| 1777821416 | 15.56° C | 10% | 1015 hPa | 0 mm | - | - | - |
| 1777821236 | 15° C | 10% | 1015 hPa | 0 mm | - | - | - |
| 1777821056 | 15° C | 10% | 1015.2 hPa | 0 mm | - | - | - |
| 1777820875 | 15° C | 10% | 1015.2 hPa | 0 mm | - | - | - |
| 1777820696 | 15° C | 10% | 1015.1 hPa | 0 mm | - | - | - |
| 1777820516 | 15° C | 10% | 1015.2 hPa | 0 mm | - | - | - |
| 1777820335 | 15° C | 10% | 1015.2 hPa | 0 mm | - | - | - |
| 1777820156 | 15.56° C | 10% | 1015.2 hPa | 0 mm | - | - | - |
| 1777819975 | 16.11° C | 10% | 1015.5 hPa | 0 mm | - | - | - |
| 1777819796 | 16.11° C | 10% | 1015.4 hPa | 0 mm | - | - | - |
| 1777819615 | 15.56° C | 10% | 1015.4 hPa | 0 mm | - | - | - |
| 1777819434 | 15° C | 10% | 1015.6 hPa | 0 mm | - | - | - |
| 1777819255 | 15° C | 10% | 1015.6 hPa | 0 mm | - | - | - |
| 1777819075 | 14.44° C | 10% | 1015.6 hPa | 0 mm | - | - | - |
| 1777818895 | 13.89° C | 10% | 1015.7 hPa | 0 mm | - | - | - |
| 1777818715 | 13.89° C | 10% | 1015.7 hPa | 0 mm | - | - | - |
| 1777818536 | 13.33° C | 10% | 1015.7 hPa | 0 mm | - | - | - |
| 1777818355 | 13.33° C | 10% | 1015.7 hPa | 0 mm | - | - | - |
| 1777818175 | 13.33° C | 10% | 1015.7 hPa | 0 mm | - | - | - |
* Rain latest hour (hover to see other rain measurements)
** Current wind speed in m/s (hover to see current wind gust speed)